Home   Weather   Friedrichshafen   Past weeks

Flag for Germany Past Weather in Friedrichshafen, Baden-Württemberg, Germany — Yesterday and Last 2 Weeks

Now
68 °F

Clear.


Feels Like: 68 °F
Forecast: 63 / 80 °F
Wind: 2 mph from North

Location: Friedrichshafen Airport

Current Time: Aug 16, 2017 at 10:02:32 pm

Latest Report: Aug 16, 2017 at 9:20 pm


Visibility: 10 mi

Pressure: 30.15 "Hg

Humidity: 88%

Dew Point: 64 °F

Location of FriedrichshafenLocation

Past Weather in Friedrichshafen — Graph

°F

Friedrichshafen Temperature Yesterday

Maximum temperature yesterday: 84 °F (at 4:20 pm)
Minimum temperature yesterday: 57 °F (at 2:50 am)
Average temperature yesterday: 70 °F

High & Low Weather Summary for the Past Weeks

 TemperatureHumidityPressure
High88 °F (Aug 3, 3:50 pm)100% (Aug 2, 3:50 am)30.21 "Hg (Aug 2, 3:50 am)
Low52 °F (Aug 7, 4:50 am)43% (Aug 3, 4:50 pm)29.86 "Hg (Aug 8, 6:50 am)
Average66 °F81%30.09 "Hg
* Reported Aug 1 8:20 pm — Aug 16 8:20 pm, Friedrichshafen. Weather by CustomWeather, © 2017

Note: Actual official high and low records may vary slightly from our data, if they occured in-between our weather recording intervals... More about our weather records

Advertising

Friedrichshafen Weather History for the Previous 24 Hours

Scroll right to see more
 ConditionsComfort  
Time TempWeatherWind HumidityBarometerVisibility
8:20 pm
Wed, Aug 16
72 °FSunny.No wind78%30.12 "Hg10 mi
7:50 pm72 °FSunny.No wind83%30.12 "Hg10 mi
7:20 pm73 °FSunny.2 mph74%30.12 "Hg10 mi
6:50 pm75 °FSunny.5 mph69%30.12 "Hg10 mi
6:20 pm77 °FSunny.5 mph61%30.12 "Hg10 mi
5:50 pm77 °FSunny.6 mph61%30.12 "Hg10 mi
5:20 pm79 °FSunny.2 mph58%30.12 "Hg10 mi
4:50 pm81 °FSunny.2 mph48%30.12 "Hg10 mi
4:20 pm79 °FSunny.6 mph54%30.12 "Hg10 mi
3:50 pm79 °FSunny.3 mph51%30.15 "Hg10 mi
3:20 pm79 °FPassing clouds.6 mph54%30.15 "HgN/A
2:50 pm79 °FPassing clouds.6 mph54%30.15 "HgN/A
2:20 pm77 °FSunny.3 mph61%30.15 "Hg10 mi
1:50 pm77 °FSunny.5 mph61%30.15 "Hg10 mi
1:20 pm77 °FPassing clouds.3 mph65%30.18 "HgN/A
12:50 pm75 °FPassing clouds.2 mph65%30.18 "HgN/A
12:20 pm73 °FPassing clouds.2 mph69%30.18 "HgN/A
11:50 am73 °FSunny.2 mph74%30.18 "Hg10 mi
11:20 am73 °FSunny.3 mph74%30.21 "Hg10 mi
10:50 am70 °FPassing clouds.3 mph78%30.21 "HgN/A
10:20 am68 °FPassing clouds.2 mph83%30.21 "HgN/A
9:50 am68 °FPassing clouds.3 mph83%30.21 "HgN/A
9:20 am64 °FSunny.2 mph88%30.21 "Hg10 mi
8:50 am64 °FScattered clouds.3 mph88%30.21 "HgN/A
8:20 am63 °FPartly sunny.3 mph100%30.21 "HgN/A
7:50 am63 °FPartly sunny.2 mph94%30.21 "HgN/A
7:20 am63 °FMostly cloudy.3 mph94%30.21 "HgN/A
6:50 am63 °FLight rain. Cloudy.3 mph94%30.21 "HgN/A
6:20 am63 °FLow clouds.3 mph100%30.18 "HgN/A
5:50 am63 °FOvercast.1 mph94%30.21 "HgN/A
5:20 am63 °FOvercast.3 mph100%30.18 "HgN/A
4:50 am63 °FOvercast.5 mph100%30.21 "HgN/A
4:20 am63 °FOvercast.6 mph100%30.21 "HgN/A
4:06 am63 °FLight rain. Mostly cloudy.2 mph100%30.21 "HgN/A
3:55 am63 °FLight rain. Mostly cloudy.No wind100%30.21 "HgN/A
3:31 am63 °FRain. Mostly cloudy.3 mph100%30.21 "HgN/A
3:05 am63 °FSprinkles. Overcast.2 mph100%30.21 "HgN/A
2:20 am63 °FMild.12 mph94%30.21 "HgN/A
1:50 am63 °FMild.2 mph94%30.15 "HgN/A
1:38 am63 °FRain. Partly cloudy.3 mph94%30.15 "HgN/A
12:50 am63 °FPassing clouds.3 mph94%30.15 "HgN/A
12:20 am63 °FPassing clouds.7 mph94%30.15 "HgN/A
11:50 pm
Tue, Aug 15
64 °FPassing clouds.6 mph88%30.15 "HgN/A
11:20 pm66 °FPassing clouds.5 mph94%30.15 "HgN/A
10:50 pm66 °FPassing clouds.3 mph94%30.15 "HgN/A
10:40 pm66 °FPassing clouds.3 mph94%30.15 "HgN/A
10:20 pm66 °FSprinkles. Partly cloudy.7 mph94%30.15 "HgN/A
Weather by CustomWeather, © 2017

See weather overviewHow to use our weather pages